This is the latest recevied weather packets stored in our database for station/object KC4GS-13. If no packets are shown the sender has not sent any weather packets the latest 10 day(s).
| Time | Temp. | Humidity | Pressure | Rain* | Wind** | Luminosity | Snow |
|---|---|---|---|---|---|---|---|
| 1777844814 | 23.89° C | 36% | 1017.9 hPa | 0 mm | - | 299 W/m² | - |
| 1777844510 | 23.89° C | 33% | 1017.7 hPa | 0 mm | - | 317 W/m² | - |
| 1777844210 | 23.89° C | 32% | 1017.7 hPa | 0 mm | - | 426 W/m² | - |
| 1777843906 | 23.89° C | 32% | 1017.8 hPa | 0 mm | - | 470 W/m² | - |
| 1777843604 | 25° C | 30% | 1017.9 hPa | 0 mm | - | 485 W/m² | - |
| 1777843301 | 24.44° C | 35% | 1017.7 hPa | 0 mm | - | 437 W/m² | - |
| 1777842999 | 24.44° C | 32% | 1017.7 hPa | 0 mm | - | 449 W/m² | - |
| 1777842693 | 23.89° C | 34% | 1017.7 hPa | 0 mm | - | 439 W/m² | - |
| 1777842390 | 23.89° C | 31% | 1017.8 hPa | 0 mm | - | 505 W/m² | - |
| 1777842087 | 24.44° C | 31% | 1017.7 hPa | 0 mm | - | 495 W/m² | - |
| 1777841783 | 25° C | 29% | 1017.7 hPa | 0 mm | - | 488 W/m² | - |
| 1777841479 | 25° C | 30% | 1017.9 hPa | 0 mm | - | 538 W/m² | - |
| 1777841176 | 23.89° C | 30% | 1018.1 hPa | 0 mm | - | 538 W/m² | - |
| 1777840874 | 24.44° C | 31% | 1018 hPa | 0 mm | - | 484 W/m² | - |
| 1777840570 | 25° C | 32% | 1018.1 hPa | 0 mm | - | 563 W/m² | - |
| 1777840268 | 23.89° C | 33% | 1018.1 hPa | 0 mm | - | 549 W/m² | - |
| 1777839965 | 23.89° C | 33% | 1018.3 hPa | 0 mm | - | 542 W/m² | - |
| 1777839663 | 23.89° C | 32% | 1018.2 hPa | 0 mm | - | 616 W/m² | - |
| 1777839361 | 23.89° C | 33% | 1018.3 hPa | 0 mm | - | 641 W/m² | - |
| 1777839058 | 23.89° C | 30% | 1018.1 hPa | 0 mm | - | 603 W/m² | - |
| 1777838754 | 23.89° C | 31% | 1018.3 hPa | 0 mm | - | 589 W/m² | - |
| 1777838451 | 23.89° C | 34% | 1018.6 hPa | 0 mm | - | 654 W/m² | - |
| 1777838148 | 23.89° C | 33% | 1018.4 hPa | 0 mm | - | 666 W/m² | - |
| 1777837844 | 24.44° C | 38% | 1018.2 hPa | 0 mm | - | 647 W/m² | - |
| 1777837542 | 24.44° C | 34% | 1018.7 hPa | 0 mm | - | 610 W/m² | - |
* Rain latest hour (hover to see other rain measurements)
** Current wind speed in m/s (hover to see current wind gust speed)